EW4993 Weather Reports


time (UTC)temp
C
wind
direction
speed
KPH
gust
KPH
rain 1hr
cm
rain 24hr
cm
rain mn
cm
humidity
%
barometer
mb
20260509094604 21 40 0.0 6.4 0.00 0.00 0.00 66 985.6
20260509093041 21 35 6.4 14.5 0.00 0.00 0.00 66 985.7
20260509091542 21 200 0.0 0.0 0.00 0.00 0.00 67 985.1
20260509090023 21 200 0.0 0.0 0.00 0.00 0.00 67 984.9
20260509084524 21 200 0.0 0.0 0.00 0.00 0.00 67 985.1
20260509083002 21 200 0.0 0.0 0.00 0.00 0.00 67 985.2
20260509081502 21 200 0.0 0.0 0.00 0.00 0.00 68 985.2
20260509074550 21 198 0.0 0.0 0.00 0.00 0.00 68 985.5
20260509073056 21 196 0.0 0.0 0.00 0.00 0.00 69 985.9
20260509071556 21 196 0.0 0.0 0.00 0.00 0.00 69 986.1
20260509070049 21 199 0.0 4.8 0.00 0.00 0.00 69 985.8
20260509064601 22 220 3.2 9.7 0.00 0.00 0.00 70 985.8
20260509063047 22 206 4.8 8.0 0.00 0.00 0.00 70 985.8
20260509061547 22 183 0.0 0.0 0.00 0.00 0.00 70 985.6
20260509060044 21 183 0.0 0.0 0.00 0.00 0.00 70 985.8
20260509054529 21 184 0.0 0.0 0.00 0.00 0.00 70 985.0
20260509053025 21 184 0.0 0.0 0.00 0.00 0.00 71 984.8
20260509051507 21 190 0.0 0.0 0.00 0.00 0.00 71 984.5
20260509050006 21 192 0.0 0.0 0.00 0.00 0.00 71 984.7
20260509044548 21 193 0.0 0.0 0.00 0.00 0.00 72 984.7
20260509043047 21 193 0.0 0.0 0.00 0.00 0.00 72 984.8
20260509041548 21 192 0.0 4.8 0.00 0.00 0.00 73 984.9
20260509040029 21 192 1.6 8.0 0.00 0.00 0.00 73 984.7
20260509034508 21 188 4.8 8.0 0.00 0.00 0.00 75 984.6
20260509033006 21 185 0.0 0.0 0.00 0.00 0.00 76 984.6
20260509031546 21 185 1.6 8.0 0.00 0.00 0.00 76 984.4
20260509030046 22 188 3.2 8.0 0.00 0.00 0.00 77 984.2
20260509024525 22 200 4.8 11.3 0.00 0.00 0.00 77 983.9
20260509023027 22 202 4.8 8.0 0.00 0.00 0.00 78 983.9
20260509021504 22 156 0.0 0.0 0.00 0.00 0.00 79 984.0
20260509020005 22 110 0.0 0.0 0.00 0.00 0.00 80 983.7
20260509014548 22 109 0.0 0.0 0.00 0.00 0.00 80 983.6
20260509013054 22 109 0.0 0.0 0.00 0.00 0.00 80 983.6
20260509011554 22 103 0.0 0.0 0.00 0.00 0.00 81 983.5
20260509010051 23 88 0.0 0.0 0.00 0.00 0.00 81 983.5
20260509004544 23 88 0.0 0.0 0.00 0.00 0.00 81 983.5
20260509003043 23 88 0.0 0.0 0.00 0.00 0.00 81 983.6
20260509001542 23 88 0.0 0.0 0.00 0.00 0.00 82 983.6
20260509000041 23 88 0.0 0.0 0.00 0.00 0.00 82 983.6
20260508234524 23 88 6.4 12.9 0.00 0.00 0.00 82 983.6
20260508233021 23 76 6.4 14.5 0.00 0.00 0.00 81 983.8
20260508231559 24 79 4.8 9.7 0.00 0.00 0.00 81 983.7
20260508230059 24 104 3.2 9.7 0.00 0.00 0.00 80 983.7
20260508224537 24 111 4.8 12.9 0.00 0.00 0.00 80 983.7
20260508223035 24 87 1.6 6.4 0.00 0.00 0.00 81 983.8
20260508221515 23 80 3.2 12.9 0.00 0.00 0.00 81 983.8
20260508220023 23 101 3.2 9.7 0.00 0.00 0.00 81 984.0
20260508214556 23 87 4.8 12.9 0.00 0.00 0.00 81 984.0
20260508213053 23 90 8.0 14.5 0.00 0.00 0.00 81 984.0
20260508211538 23 97 6.4 11.3 0.00 0.00 0.00 81 984.5
20260508210031 23 101 0.0 11.3 0.00 0.00 0.00 81 984.7
20260508204510 22 93 6.4 12.9 0.00 0.00 0.00 81 984.8
20260508203006 22 74 1.6 12.9 0.00 0.00 0.00 81 985.3
20260508201549 22 82 4.8 14.5 0.00 0.00 0.00 81 985.5
20260508200104 22 71 4.8 14.5 0.00 0.00 0.00 81 985.5
20260508194533 22 71 6.4 14.5 0.00 0.00 0.00 81 985.6
20260508193022 22 98 3.2 11.3 0.00 0.00 0.00 81 986.0
20260508191504 21 98 3.2 11.3 0.00 0.00 0.00 81 986.2
20260508190104 21 111 0.0 9.7 0.00 0.00 0.00 81 986.4
20260508184543 21 58 6.4 11.3 0.00 0.00 0.00 81 986.3
20260508183054 21 86 4.8 14.5 0.00 0.00 0.00 81 986.4
20260508181521 21 95 4.8 11.3 0.00 0.00 0.00 81 986.6
20260508180021 21 52 4.8 14.5 0.00 0.00 0.00 81 986.7
20260508174605 21 72 8.0 14.5 0.00 0.00 0.00 82 986.9
20260508173056 20 59 6.4 14.5 0.00 0.00 0.00 82 987.1
20260508171537 20 70 4.8 8.0 0.00 0.00 0.00 82 987.5
20260508170035 20 69 0.0 0.0 0.00 0.00 0.00 82 987.6
20260508164521 19 128 0.0 0.0 0.00 0.00 0.00 82 987.8
20260508163023 19 130 0.0 0.0 0.00 0.00 0.00 82 987.9
20260508161517 18 130 0.0 0.0 0.00 0.00 0.00 82 987.9
20260508160013 18 130 0.0 0.0 0.00 0.00 0.00 83 988.3
20260508154532 18 130 1.6 6.4 0.00 0.00 0.00 83 988.1
20260508153012 18 130 3.2 6.4 0.00 0.00 0.00 83 988.4
20260508151513 18 131 3.2 6.4 0.00 0.00 0.00 83 988.3
20260508150008 17 131 3.2 6.4 0.00 0.00 0.00 82 988.2
20260508144600 17 144 4.8 9.7 0.00 0.00 0.00 82 988.2
20260508143047 17 116 1.6 9.7 0.00 0.00 0.00 82 988.2
20260508141534 17 142 4.8 8.0 0.00 0.00 0.00 82 988.4
20260508140028 16 138 0.0 4.8 0.00 0.00 0.00 82 988.4
20260508134512 16 147 0.0 0.0 0.00 0.00 0.00 82 988.6
20260508133011 16 147 0.0 3.2 0.00 0.00 0.00 82 988.5
20260508131553 16 147 0.0 9.7 0.00 0.00 0.00 82 988.4
20260508130051 16 163 0.0 9.7 0.00 0.00 0.00 82 988.5
20260508124536 15 41 0.0 0.0 0.00 0.00 0.00 82 988.6
20260508123045 15 40 0.0 0.0 0.00 0.00 0.00 82 988.6
20260508121519 15 39 0.0 0.0 0.00 0.00 0.00 82 988.8
20260508120015 15 40 1.6 6.4 0.00 0.00 0.00 82 988.8
20260508114602 15 40 0.0 6.4 0.00 0.00 0.00 82 989.2
20260508113056 15 40 6.4 12.9 0.00 0.00 0.00 82 989.1
20260508111540 15 42 6.4 11.3 0.00 0.00 0.00 82 988.9
20260508110038 15 42 6.4 11.3 0.00 0.00 0.00 82 988.8
20260508104520 15 44 6.4 11.3 0.00 0.00 0.00 83 988.9
20260508103022 15 42 4.8 11.3 0.00 0.00 0.00 83 989.3
20260508101501 15 35 4.8 9.7 0.00 0.00 0.00 83 989.4
20260508100002 15 42 6.4 14.5 0.00 0.00 0.00 82 989.6